WT9M-8 Weather Reports


Display with metric or nautical units.
time (UTC)temp
F
wind
direction
speed
MPH
gust
MPH
rain 1hr
in
rain 24hr
in
rain mn
in
humidity
%
barometer
mb
20260504081033 35 0.0 0.0 0.00 0.00 0.00 84 1001.8
20260504045027 39 0.0 0.0 0.00 0.00 0.00 78 1004.1
20260504044044 39 0.0 0.0 0.00 0.00 0.00 79 1004.3
20260504043017 40 0.0 0.0 0.00 0.00 0.00 77 1004.4
20260504042033 40 0.0 0.0 0.00 0.00 0.00 77 1004.2
20260504041029 40 0.0 0.0 0.00 0.00 0.00 76 1004.2
20260504040044 41 0.0 0.0 0.00 0.00 0.00 76 1004.4
20260504035021 41 0.0 0.0 0.00 0.00 0.00 75 1004.5
20260504034038 42 0.0 0.0 0.00 0.00 0.00 74 1004.6
20260504033032 42 0.0 0.0 0.00 0.00 0.00 74 1004.6
20260504032026 43 0.0 0.0 0.00 0.00 0.00 73 1004.7
20260504031023 44 0.0 0.0 0.00 0.00 0.00 72 1004.7
20260504030036 45 0.0 0.0 0.00 0.00 0.00 72 1004.7
20260504025032 45 0.0 0.0 0.00 0.00 0.00 71 1004.6
20260504024047 46 0.0 0.0 0.00 0.00 0.00 71 1004.7
20260504023024 47 0.0 0.0 0.00 0.00 0.00 70 1004.6
20260504022018 48 99 0.0 2.0 0.00 0.00 0.00 71 1004.4
20260504021033 49 78 2.0 2.0 0.00 0.00 0.00 71 1004.3
20260504020030 50 80 2.0 3.0 0.00 0.00 0.00 71 1004.2
20260504015024 51 83 3.0 3.0 0.00 0.00 0.00 70 1004.0
20260504014018 52 83 3.0 3.0 0.00 0.00 0.00 67 1004.0
20260504013033 54 92 3.0 3.0 0.00 0.00 0.00 65 1004.1
20260504012048 55 83 3.0 4.0 0.00 0.00 0.00 63 1004.0
20260504011024 58 87 3.0 4.0 0.00 0.00 0.00 59 1003.9
20260504010040 61 80 2.0 3.0 0.00 0.00 0.00 52 1003.9
20260504005035 64 0.0 0.0 0.00 0.00 0.00 45 1003.8
20260504004031 66 253 1.0 4.0 0.00 0.00 0.00 42 1003.7
20260504003027 67 246 1.0 2.0 0.00 0.00 0.00 40 1003.9
20260504002040 69 254 1.0 3.0 0.00 0.00 0.00 38 1003.9
20260504001036 70 256 4.0 9.0 0.00 0.00 0.00 38 1003.8
20260504000031 71 275 3.0 13.0 0.00 0.00 0.00 37 1003.8
20260503235026 71 273 2.0 4.0 0.00 0.00 0.00 36 1003.6
20260503234021 72 249 3.0 6.0 0.00 0.00 0.00 36 1003.5
20260503233016 72 262 3.0 11.0 0.00 0.00 0.00 34 1003.5
20260503232031 72 249 3.0 7.0 0.00 0.00 0.00 34 1003.5
20260503231026 73 262 4.0 9.0 0.00 0.00 0.00 33 1003.3
20260503230022 75 267 5.0 13.0 0.00 0.00 0.00 33 1003.4
20260503225017 76 260 4.0 13.0 0.00 0.00 0.00 34 1003.2
20260503224033 78 244 5.0 11.0 0.00 0.00 0.00 33 1003.3
20260503223028 79 253 4.0 13.0 0.00 0.00 0.00 33 1003.2
20260503222024 79 254 4.0 6.0 0.00 0.00 0.00 32 1003.0
20260503221018 80 238 7.0 13.0 0.00 0.00 0.00 32 1003.1
20260503220033 81 252 4.0 9.0 0.00 0.00 0.00 33 1003.3
20260503215029 80 233 4.0 11.0 0.00 0.00 0.00 34 1003.3
20260503214023 80 232 7.0 13.0 0.00 0.00 0.00 34 1003.4
20260503213019 80 239 6.0 11.0 0.00 0.00 0.00 34 1003.4
20260503212034 81 242 7.0 16.0 0.00 0.00 0.00 33 1003.4
20260503211030 80 248 4.0 7.0 0.00 0.00 0.00 37 1003.4
20260503210025 80 242 6.0 10.0 0.00 0.00 0.00 36 1003.6
20260503205019 81 220 5.0 11.0 0.00 0.00 0.00 36 1003.9
20260503204035 81 241 4.0 8.0 0.00 0.00 0.00 37 1003.9
20260503203030 81 233 5.0 10.0 0.00 0.00 0.00 37 1003.9
20260503202026 80 254 4.0 9.0 0.00 0.00 0.00 37 1003.9
20260503201021 80 256 7.0 17.0 0.00 0.00 0.00 37 1004.2
20260503200017 79 227 4.0 9.0 0.00 0.00 0.00 39 1004.1
20260503195031 78 221 7.0 15.0 0.00 0.00 0.00 39 1004.3
20260503194027 78 241 5.0 15.0 0.00 0.00 0.00 40 1004.3
20260503193023 77 211 5.0 10.0 0.00 0.00 0.00 40 1004.6
20260503192017 77 253 4.0 10.0 0.00 0.00 0.00 40 1004.7
20260503191033 76 228 4.0 10.0 0.00 0.00 0.00 40 1004.7
20260503190027 76 222 5.0 11.0 0.00 0.00 0.00 41 1004.7
20260503185024 75 219 5.0 9.0 0.00 0.00 0.00 41 1004.9
20260503184018 75 260 5.0 10.0 0.00 0.00 0.00 41 1005.1
20260503183114 74 232 5.0 10.0 0.00 0.00 0.00 41 1005.2
20260503182030 74 197 4.0 10.0 0.00 0.00 0.00 42 1005.3
20260503181025 73 258 6.0 14.0 0.00 0.00 0.00 41 1005.3
20260503180021 73 225 7.0 17.0 0.00 0.00 0.00 42 1005.4
20260503175016 72 246 6.0 14.0 0.00 0.00 0.00 42 1005.5
20260503174051 72 236 7.0 16.0 0.00 0.00 0.00 42 1005.4
20260503173026 72 254 6.0 15.0 0.00 0.00 0.00 42 1005.6
20260503172041 71 208 6.0 14.0 0.00 0.00 0.00 44 1005.8
20260503171017 71 190 5.0 14.0 0.00 0.00 0.00 42 1005.9
20260503131050 56 197 6.0 13.0 0.00 0.00 0.00 60 1007.5